RH
11 11 11 11 11 11 10 10 10 10 10 10 10 10 10 10 10 10 10 9 9 9 8 9 8 8 8 8 8 8 9 9 9 9 9 10 9 8 8 9 8 8 8 8 9 9 9 10 9 10 10 10 11 12 13 13 12 13 18 19 19 22 22 21 20 18 18 18 20 20 19 18 17 17 16 16 16 15 15 14 14 14 14 13 13 13 14 15
11 11 11 11 11 11 11 11 11 11 11 11 11 10 10 10 10 10 10 9 9 9 9 9 8 9 9 9 9 9 9 9 10 9 9 10 9 9 9 9 9 9 8 8 9 9 10 10 10 10 10 11 12 13 13 14 13 15 20 19 22 24 19 17 17 16 17 17 19 19 19 18 18 17 17 17 16 16 16 16 15 15 14 13 13 13 13 14
12 12 12 12 12 12 12 12 11 11 11 11 11 11 11 10 10 10 10 10 9 9 9 9 9 9 9 9 9 9 10 10 10 10 9 9 10 10 10 10 9 9 9 9 9 10 11 11 11 11 11 11 12 14 15 15 15 16 18 20 24 23 18 16 15 16 17 17 19 19 19 19 19 19 18 18 18 19 18 17 16 16 15 14 14 14 14 14
13 13 13 13 13 13 12 12 12 12 12 12 11 11 11 11 11 10 10 10 10 10 10 10 10 10 10 9 10 10 10 11 11 10 10 10 10 10 10 10 10 9 9 9 9 10 11 11 11 11 11 12 12 14 16 16 17 17 18 23 23 19 18 18 17 17 18 19 20 20 21 20 20 20 20 20 20 21 20 18 17 16 15 15 16 15 15 15
13 14 14 14 14 13 13 13 13 13 13 13 13 12 12 12 12 12 11 11 11 11 11 10 10 10 10 10 11 11 11 12 12 11 10 10 10 10 11 11 11 10 10 10 10 10 11 11 11 12 12 13 14 15 17 17 18 19 20 21 21 19 20 20 19 20 21 21 22 21 22 22 22 22 22 22 22 21 20 19 18 17 16 16 16 17 17 16
14 14 14 14 15 14 15 14 14 14 14 14 14 14 14 14 14 13 13 13 13 12 12 12 12 12 12 13 13 13 13 13 13 12 12 11 11 12 12 12 12 11 11 11 11 11 11 12 13 13 13 15 17 17 18 19 20 21 22 21 20 21 22 22 22 22 22 23 23 23 23 23 23 23 23 23 23 21 20 20 20 19 18 17 17 17 17 17
14 14 15 15 15 16 16 16 16 16 17 17 17 17 16 16 16 16 15 16 15 15 15 15 16 16 17 17 17 16 16 15 15 15 14 13 13 13 13 13 12 12 13 13 13 13 14 15 16 15 16 18 19 19 20 20 21 22 24 23 22 23 23 23 23 23 23 24 24 24 23 24 24 24 24 24 23 22 21 20 20 19 19 18 18 18 18 19
15 15 16 17 17 18 18 18 18 18 18 18 18 18 18 18 18 18 18 18 18 19 19 20 20 21 21 21 20 19 18 18 18 17 17 16 16 15 14 14 14 14 15 15 16 16 17 18 18 18 19 20 20 21 21 21 22 23 23 23 23 24 24 24 24 24 24 24 25 24 24 25 25 24 24 24 23 21 20 20 19 19 19 19 19 18 18 19
16 17 18 19 19 19 19 19 18 18 18 18 17 17 17 17 17 17 18 18 19 20 20 20 21 21 22 22 21 20 20 21 21 20 19 18 18 17 16 16 15 16 16 17 18 19 20 21 20 20 21 22 22 22 21 22 23 23 23 23 23 24 24 25 25 25 25 25 25 24 24 25 25 24 24 23 22 21 21 20 19 19 19 20 19 19 19 18
19 20 20 20 20 19 18 18 18 17 17 17 17 17 17 17 18 18 18 19 20 20 20 20 20 20 21 22 22 22 23 23 23 22 20 19 19 18 18 19 18 17 18 19 20 21 22 22 23 23 23 23 22 22 22 23 24 24 23 24 24 25 25 25 25 25 25 25 25 24 24 25 25 24 24 23 22 22 21 20 20 19 19 20 20 21 21 20
21 21 20 19 18 18 18 19 19 19 19 19 19 20 20 20 20 21 22 22 23 23 22 21 21 21 21 21 23 24 24 24 24 23 22 21 20 20 22 22 21 20 20 20 21 22 23 24 24 25 25 24 24 24 24 24 25 24 24 25 26 26 26 26 26 25 25 25 25 25 25 25 25 25 25 24 23 22 21 21 20 20 20 20 21 22 22 22
21 20 19 20 20 21 21 22 22 23 23 23 23 23 23 24 25 26 26 27 27 27 27 26 25 25 23 22 23 24 23 24 25 25 25 25 24 24 24 25 24 22 22 23 24 25 26 27 27 28 28 26 26 26 25 25 25 25 26 27 28 29 28 27 26 25 25 26 26 25 26 26 26 26 25 24 23 23 21 21 22 22 22 21 21 21 22 22
22 22 23 23 24 25 25 25 25 26 26 26 27 28 29 30 31 31 32 32 33 32 32 31 30 30 28 26 26 27 26 25 25 25 26 26 26 26 26 26 25 25 25 25 26 27 28 29 28 29 29 28 29 27 26 26 27 28 29 29 30 31 30 28 27 26 26 27 27 26 28 28 26 25 25 24 23 23 23 24 24 25 25 24 23 22 22 22
28 28 29 29 29 29 29 29 30 30 31 32 33 34 35 36 36 37 37 36 36 36 35 34 33 32 31 30 29 29 29 28 28 28 28 28 28 28 28 28 28 27 27 28 29 29 30 31 31 30 30 30 30 29 29 30 30 31 30 31 32 32 32 29 27 27 27 28 27 27 29 28 26 24 24 24 24 25 26 27 28 28 28 27 26 24 24 24
34 34 34 34 34 34 34 35 35 36 37 38 39 39 40 40 40 39 39 39 38 37 36 35 33 33 32 30 30 30 30 30 30 30 29 29 30 30 30 30 30 29 29 29 30 31 31 32 32 32 31 31 31 32 34 34 34 32 31 35 35 32 33 31 28 28 28 29 28 28 30 30 27 25 25 26 27 28 29 29 30 30 29 28 28 28 28 28
37 37 37 38 39 39 39 39 40 40 41 41 42 42 42 41 41 40 40 38 37 37 36 34 33 32 31 31 30 30 29 29 30 30 30 30 30 30 31 31 31 30 30 31 31 32 32 32 32 33 33 33 33 34 37 38 38 35 32 36 37 34 35 34 31 30 30 30 29 29 31 31 30 28 27 29 30 31 32 32 31 30 30 29 30 30 30 30
40 41 42 43 43 43 43 43 43 43 43 43 43 43 41 40 39 38 37 36 37 36 34 34 34 33 33 32 32 32 32 31 31 31 32 31 31 31 31 32 32 31 31 32 32 32 32 31 31 32 33 34 35 36 39 40 40 40 37 37 39 38 38 37 36 33 32 32 31 31 32 31 31 30 30 33 33 33 33 32 31 30 30 31 31 31 30 30
43 44 44 45 45 45 44 44 43 43 43 43 42 41 40 39 38 38 39 38 38 38 37 37 38 38 37 35 34 34 33 33 33 33 33 32 32 32 32 33 32 32 32 32 33 33 33 32 33 36 37 36 37 38 41 42 42 43 42 41 42 41 39 39 38 36 35 35 35 35 35 33 33 32 32 34 34 34 33 31 30 30 31 31 31 31 31 31
42 43 44 44 44 45 45 45 44 44 44 44 43 43 43 43 43 44 43 42 41 42 42 39 38 39 37 34 33 33 33 32 32 33 33 33 33 32 33 33 33 32 33 35 36 36 37 38 40 43 43 41 39 39 40 40 41 42 42 42 43 42 41 40 39 39 38 38 38 38 37 36 35 35 35 34 34 34 33 31 30 31 32 32 31 31 32 32
46 47 49 50 50 51 51 51 50 50 49 49 49 49 48 48 49 47 44 42 42 41 40 38 37 37 36 36 35 35 35 34 34 34 34 34 33 34 34 34 35 35 35 39 41 39 40 45 48 47 46 44 41 40 39 39 40 41 41 42 43 43 43 42 41 40 38 38 39 39 38 38 37 37 37 34 33 32 32 32 32 32 32 31 32 31 32 32
58 59 60 60 60 59 59 58 57 56 54 54 53 52 51 51 51 49 46 44 42 41 41 41 42 42 42 43 43 43 43 42 41 41 40 39 38 38 37 37 38 39 39 42 43 41 42 48 49 47 47 45 44 44 43 43 43 44 44 45 46 46 44 41 40 39 38 38 40 39 38 39 38 37 36 32 31 31 32 33 33 32 33 33 33 32 32 32
67 68 67 67 66 64 62 61 59 58 57 55 55 54 53 53 53 51 50 49 46 46 48 48 49 49 49 50 51 52 51 49 48 47 46 44 43 44 44 44 44 45 45 44 45 46 47 50 49 48 48 47 47 47 46 47 47 47 48 47 47 48 45 44 42 40 39 40 42 42 39 39 38 36 34 31 31 33 34 35 34 34 36 35 34 32 31 30
71 71 71 69 67 65 64 62 60 59 58 57 56 56 56 55 55 54 54 53 51 51 52 53 54 54 55 56 55 55 55 53 53 52 50 48 47 48 48 48 49 50 50 49 50 52 53 52 50 48 49 49 49 49 49 48 48 48 48 47 49 48 47 48 46 43 42 42 43 42 40 39 37 36 35 34 33 35 36 36 36 36 36 35 33 32 30 30
74 74 74 71 69 68 67 66 64 62 62 62 62 61 61 60 59 58 57 56 56 54 54 57 57 57 59 59 58 57 55 55 55 54 54 53 51 51 50 50 51 52 52 51 52 54 53 51 49 49 50 50 49 49 49 48 49 51 50 49 49 48 47 48 48 47 45 46 46 43 44 44 39 37 38 38 37 37 39 38 38 37 35 34 33 32 31 30
76 76 76 74 73 73 72 71 69 70 70 69 71 71 70 69 66 64 61 62 63 59 57 59 60 60 59 59 59 57 54 53 53 53 54 54 54 53 52 51 52 53 53 52 54 55 52 49 50 50 50 50 49 50 51 49 50 52 52 50 48 48 49 48 49 50 48 50 49 46 52 51 42 39 38 38 37 37 39 39 38 37 36 35 34 34 33 33
77 77 78 77 77 77 77 75 74 75 75 74 74 75 75 75 74 71 69 72 71 65 62 61 61 60 57 58 58 56 56 54 53 53 54 55 55 54 54 53 52 53 54 53 55 54 51 50 51 51 50 50 49 51 53 52 51 53 53 52 51 50 50 49 50 50 49 52 49 46 55 52 41 40 38 35 36 36 37 39 38 38 39 38 37 35 34 34
79 80 80 80 80 80 80 78 77 76 76 77 77 77 78 77 78 76 75 80 76 67 65 64 61 58 54 54 54 55 59 56 53 53 54 55 56 54 55 56 53 53 53 53 56 54 50 50 51 51 51 51 51 52 53 52 52 55 56 55 53 51 51 51 50 51 51 51 50 48 52 49 42 41 37 34 36 36 37 39 39 39 40 39 38 35 34 34
82 83 83 83 83 83 82 80 79 77 78 80 80 81 82 81 82 79 81 87 76 63 64 64 61 57 52 52 53 54 56 54 53 54 53 54 55 54 56 56 55 55 53 53 58 56 50 50 52 51 52 54 54 54 54 54 53 57 58 56 54 52 52 52 51 53 53 51 52 51 49 49 46 42 38 36 36 37 38 41 41 40 41 41 40 37 34 34
87 87 86 86 86 85 83 82 81 81 82 84 85 85 85 87 85 81 87 89 72 62 63 62 60 58 54 55 56 53 53 53 53 54 52 53 54 53 55 55 54 54 53 52 56 55 52 51 53 54 55 55 55 57 59 57 55 56 57 56 56 56 54 54 55 55 55 54 53 49 46 48 47 42 39 36 35 36 37 40 42 41 41 42 42 40 35 33
91 92 90 89 88 88 86 85 86 88 89 89 90 90 89 89 85 87 94 85 68 64 62 60 61 60 58 59 59 55 54 55 54 54 54 54 53 53 53 54 53 57 60 58 56 55 51 50 51 53 54 54 55 58 59 57 55 54 56 58 60 61 59 59 60 57 56 56 51 45 43 44 46 44 39 35 36 37 38 42 44 43 42 42 43 42 37 34
92 93 92 92 92 91 91 92 92 93 94 92 92 92 92 91 89 94 93 76 68 68 63 63 65 62 61 63 62 58 56 58 58 57 56 55 55 54 54 55 56 61 65 62 60 59 55 53 53 51 50 52 54 55 57 59 56 54 57 57 57 61 62 60 61 59 59 57 51 46 44 44 46 43 36 34 35 34 37 41 42 41 41 41 42 41 38 34
93 94 95 96 95 94 95 96 94 94 95 94 95 95 96 96 94 94 85 72 72 71 64 67 68 64 65 64 63 61 60 61 60 58 59 59 59 58 59 61 61 63 66 64 63 62 59 57 55 52 51 51 54 55 58 61 57 54 56 55 56 61 63 62 62 61 60 56 50 46 45 46 46 39 33 36 37 34 34 37 39 40 40 40 41 40 37 34
97 97 98 98 97 96 98 97 94 94 95 95 97 97 96 97 93 87 80 73 73 70 66 69 69 67 68 65 64 63 61 61 60 59 59 60 62 62 62 64 63 63 64 64 63 60 59 60 56 55 54 52 53 54 57 59 56 53 53 54 59 63 65 67 63 59 58 53 47 43 43 46 43 37 36 39 40 39 37 38 40 41 42 42 41 40 38 35
99 99 100 99 98 97 98 98 95 93 95 97 98 97 95 93 86 80 77 74 72 72 70 71 69 68 68 66 67 66 65 65 62 61 63 63 66 67 66 64 63 63 63 63 62 59 59 59 57 57 55 52 51 50 55 59 55 52 55 56 57 59 64 65 59 58 59 56 50 45 45 47 42 38 40 40 39 39 37 36 38 40 41 42 41 39 38 36
99 99 99 99 98 97 97 99 96 94 96 98 99 98 94 88 83 80 79 76 76 76 74 74 73 71 70 69 70 69 68 69 66 65 66 67 69 71 70 67 64 63 64 63 63 60 58 58 56 54 51 50 50 50 53 58 56 54 57 58 57 58 61 63 62 61 61 62 57 49 49 48 41 38 39 37 36 35 34 34 36 38 39 40 40 39 38 38
100 99 100 98 96 96 96 98 99 98 98 99 99 98 91 86 85 83 79 77 77 79 78 78 77 75 74 73 73 72 70 71 71 70 70 70 70 71 70 67 64 62 62 62 63 60 57 59 57 53 51 50 51 53 52 53 56 59 59 60 64 64 60 63 67 62 60 67 61 46 46 46 38 37 36 35 36 34 34 35 36 37 39 40 41 40 40 40
100 99 99 98 96 96 95 97 99 99 99 100 97 91 85 84 83 81 79 77 77 78 79 81 79 78 78 76 76 77 75 74 74 73 75 75 71 69 67 65 63 61 60 59 61 62 60 60 58 54 55 54 50 53 56 55 58 61 62 65 67 68 65 65 70 66 62 67 58 43 42 40 34 35 35 34 37 37 37 39 39 40 42 43 43 41 41 43
100 99 98 97 95 96 96 97 99 98 100 100 93 86 84 82 79 78 78 77 78 79 80 82 81 79 79 77 77 79 78 78 77 78 80 78 72 71 68 65 63 61 59 58 60 64 64 62 60 57 59 59 54 56 63 64 63 65 68 69 68 70 71 68 70 70 65 64 59 48 41 36 31 32 34 36 40 41 41 43 45 46 46 46 45 44 45 46
99 98 96 96 95 95 97 99 99 100 101 97 90 87 85 81 79 77 77 78 80 82 83 83 82 83 83 81 81 82 82 83 83 82 83 79 74 72 69 67 65 63 62 62 64 68 69 69 67 61 61 64 62 64 69 70 70 71 73 74 71 70 70 65 63 64 61 59 58 52 45 41 36 32 34 39 42 44 45 46 49 49 49 50 50 49 49 49
98 97 96 96 96 96 98 100 100 101 100 93 88 87 83 79 78 76 76 79 82 84 85 86 86 86 87 85 85 85 86 88 87 86 87 82 77 76 74 71 69 67 67 69 72 74 74 75 74 68 65 67 67 69 70 71 71 71 70 70 68 64 64 63 59 53 53 58 61 60 57 49 41 37 37 39 41 43 47 50 53 54 53 53 52 52 53 53
97 98 98 96 96 97 99 101 99 99 98 93 90 89 84 79 78 79 79 80 83 87 88 89 90 88 89 90 88 88 89 91 89 89 91 86 81 82 81 76 72 73 75 77 79 78 76 79 79 74 69 68 70 69 68 70 70 69 69 67 64 63 61 64 61 49 47 57 61 64 67 57 46 44 43 43 47 49 51 54 55 56 54 53 53 56 57 57
97 99 98 97 97 98 100 100 96 97 98 93 90 89 85 80 79 82 84 83 87 90 91 91 92 91 91 91 90 91 92 93 93 92 92 87 83 83 83 77 74 75 78 82 82 78 78 83 85 80 72 67 68 67 67 69 68 67 70 67 64 65 61 61 62 52 49 59 61 65 74 68 57 53 51 51 52 52 54 55 56 58 58 58 61 62 62 60
96 97 97 96 96 98 101 99 96 98 96 90 88 89 85 83 82 83 85 87 89 92 92 91 90 91 90 89 90 91 93 95 93 90 89 87 83 83 82 77 74 76 78 81 81 78 80 87 88 83 75 67 62 62 66 69 66 65 68 64 61 60 56 57 60 59 64 66 62 69 76 68 62 60 56 58 60 61 62 60 58 60 61 62 64 63 62 59
94 93 95 97 98 99 100 97 95 97 95 91 92 92 89 86 84 83 85 88 90 93 94 92 90 89 87 86 88 90 92 95 92 87 87 87 84 82 79 76 76 77 79 79 78 78 80 85 85 82 78 71 61 56 60 65 64 61 59 56 53 50 51 57 60 66 75 72 68 80 80 66 63 62 53 55 61 60 57 55 55 57 56 56 56 56 56 54
94 94 95 98 99 99 97 94 95 98 96 96 97 94 91 89 83 81 85 86 87 92 94 90 86 83 82 83 86 87 88 89 87 86 85 85 84 80 76 75 74 74 74 71 70 72 74 75 75 75 77 73 61 52 54 59 60 56 51 48 46 44 49 55 58 66 75 71 70 77 70 55 53 52 46 49 54 53 52 54 57 57 54 52 52 53 54 52
97 98 98 98 100 100 97 95 98 99 97 98 98 92 89 87 81 80 84 85 85 87 87 83 79 77 77 78 79 82 81 80 82 82 79 78 80 75 69 66 65 63 61 59 60 66 72 73 70 69 71 67 58 53 54 57 57 53 50 46 43 44 46 48 54 62 66 65 63 55 48 46 44 41 44 49 53 55 54 53 52 48 45 47 48 51 53 52
95 95 95 97 100 99 96 97 99 98 95 95 93 86 83 84 83 84 85 84 83 82 80 79 75 74 74 72 72 74 73 74 76 75 72 73 76 74 65 60 60 58 56 56 58 62 70 71 66 67 69 62 57 56 53 53 53 49 44 39 33 33 35 37 46 50 50 57 56 38 33 45 43 34 36 41 44 44 42 39 39 38 37 40 41 42 42 40
89 85 84 88 94 94 92 92 94 95 93 92 91 86 83 85 85 84 81 79 78 75 75 77 73 69 69 67 68 69 66 68 69 64 62 67 73 74 68 62 61 59 57 59 57 59 66 65 58 62 66 58 53 54 50 47 47 43 38 33 27 25 27 33 39 36 34 46 45 28 26 34 30 24 26 29 30 32 34 36 37 36 37 38 38 36 34 33
79 76 70 70 76 79 79 81 89 93 90 90 92 88 83 84 83 78 74 74 76 72 70 74 70 64 64 63 63 63 61 62 65 60 61 66 70 73 71 66 61 57 56 59 58 59 65 64 57 56 57 51 46 48 48 45 44 41 37 34 30 29 30 33 33 27 30 40 36 28 32 31 22 21 25 25 26 28 33 36 36 36 37 36 35 34 34 36
71 68 59 57 58 57 59 66 75 81 81 82 85 79 74 76 74 70 67 69 74 71 66 67 64 60 61 60 60 60 57 60 64 65 67 70 68 69 71 68 62 57 56 58 57 56 57 58 53 48 49 47 40 41 45 43 42 40 34 29 27 28 29 28 26 25 30 35 30 31 40 35 25 25 27 26 27 29 30 33 34 34 34 33 34 36 36 36
60 56 50 51 51 47 49 53 55 62 67 65 64 61 62 64 62 62 64 61 63 64 61 60 60 59 60 59 59 62 61 64 68 70 70 70 68 68 68 64 60 56 53 52 52 50 50 52 48 47 52 48 37 40 44 39 39 40 31 25 24 25 25 24 25 26 28 29 31 38 43 36 29 30 30 29 30 29 29 30 32 35 36 35 35 34 32 29
52 50 45 47 48 44 45 46 49 56 55 48 47 49 51 51 50 56 63 60 58 60 59 57 60 64 67 65 64 65 64 65 67 67 66 65 66 65 61 56 52 50 50 50 50 51 52 53 50 51 56 48 38 43 45 42 48 45 30 23 23 23 25 27 27 27 26 29 36 40 37 33 33 34 33 34 34 32 31 31 32 34 35 32 29 26 25 24